EW7840 Centreville VA US current weather conditions

sailwx.info

Wind from 102

Air temperature 35.0° C
Dewpoint 24.0° C

Last reported at 2020-Jul-06 20:03 UTC.
Time now 2020-Jul-06 20:39 UTC

Location: N 38°51' W 077°29'.
View on Google Maps.

See reports from other nearby stations

  
Tides and Currents Weather Stations Pressure Air Temp Water Temp Dewpoint Dewpoint Depression Visibility Wind Speed Wind Dir Waves Ship Positions
date/time (UTC)wind fromknots sea level pressurealtimeterstation pressurevisibilityair tempwater tempwave heightnotes
2020-Jul-06 20:03 102 35.0
2020-Jul-06 19:58 216 34.4
2020-Jul-06 19:53 211 34.4
2020-Jul-06 19:48 222 34.4
2020-Jul-06 19:43 245 34.4
2020-Jul-06 19:38 235 35.0
2020-Jul-06 19:33 211 35.0
2020-Jul-06 19:28 221 35.6
2020-Jul-06 19:23 240 35.6
2020-Jul-06 19:18 180 35.6
2020-Jul-06 19:13 227 35.6
2020-Jul-06 19:08 277 35.0
2020-Jul-06 19:03 271 35.0
2020-Jul-06 18:58 207 35.0
2020-Jul-06 18:53 224 34.4
2020-Jul-06 18:48 188 34.4
2020-Jul-06 18:43 216 34.4
2020-Jul-06 18:38 223 34.4
2020-Jul-06 18:33 227 34.4
2020-Jul-06 18:28 280 34.4
2020-Jul-06 18:23 232 33.9
2020-Jul-06 18:17 302 33.9
2020-Jul-06 18:12 193 34.4
2020-Jul-06 18:07 153 34.4
2020-Jul-06 18:02 263 34.4
2020-Jul-06 17:57 196 34.4
2020-Jul-06 17:52 215 34.4
2020-Jul-06 17:47 253 34.4
2020-Jul-06 17:42 271 34.4
2020-Jul-06 17:37 265 33.9
2020-Jul-06 17:32 205 33.9
2020-Jul-06 17:27 213 33.3
2020-Jul-06 17:22 163 33.3
2020-Jul-06 17:17 229 33.3
2020-Jul-06 17:12 229 32.8
2020-Jul-06 17:07 202 32.8
2020-Jul-06 17:02 225 32.8
2020-Jul-06 16:57 226 32.8
2020-Jul-06 16:52 217 32.8
2020-Jul-06 16:47 246 32.8
2020-Jul-06 16:42 254 32.8
2020-Jul-06 16:37 259 32.2
2020-Jul-06 16:32 264 32.2
2020-Jul-06 16:27 217 31.7
2020-Jul-06 16:22 111 31.7
2020-Jul-06 16:17 194 31.7
2020-Jul-06 16:12 210 31.7
2020-Jul-06 16:07 209 31.7
2020-Jul-06 16:02 202 31.7
2020-Jul-06 15:57 202 31.7
2020-Jul-06 15:52 139 31.7
2020-Jul-06 15:47 281 31.7
2020-Jul-06 15:42 239 31.1
2020-Jul-06 15:37 236 30.6
2020-Jul-06 15:32 236 30.6
2020-Jul-06 15:27 193 30.0
2020-Jul-06 15:22 222 30.0
2020-Jul-06 15:17 223 30.0
2020-Jul-06 15:12 250 29.4
2020-Jul-06 15:07 243 29.4
2020-Jul-06 15:02 182 29.4
2020-Jul-06 14:57 207 29.4
2020-Jul-06 14:52 220 29.4
2020-Jul-06 14:47 219 28.9
2020-Jul-06 14:42 196 28.9
2020-Jul-06 14:37 197 28.9
2020-Jul-06 14:32 277 28.9
2020-Jul-06 14:27 238 28.3
2020-Jul-06 14:22 251 28.3
2020-Jul-06 14:17 254 27.8
2020-Jul-06 14:12 219 27.8
2020-Jul-06 14:07 175 27.8
2020-Jul-06 14:01 176 27.2
2020-Jul-06 13:56 215 27.2
2020-Jul-06 13:51 205 27.2
2020-Jul-06 13:46 205 27.2
2020-Jul-06 13:41 205 26.7
2020-Jul-06 13:36 211 26.1
2020-Jul-06 13:31 211 25.6
2020-Jul-06 13:26 206 25.6
2020-Jul-06 13:21 259 25.0
2020-Jul-06 13:16 259 24.4
2020-Jul-06 13:11 255 24.4
2020-Jul-06 13:06 255 23.9
2020-Jul-06 13:01 255 23.9
2020-Jul-06 12:56 255 23.9
2020-Jul-06 12:51 255 23.9
2020-Jul-06 12:46 255 23.3
2020-Jul-06 12:41 254 23.3
2020-Jul-06 12:36 196 23.3
2020-Jul-06 12:31 192 23.3
2020-Jul-06 12:26 201 23.3
2020-Jul-06 12:21 197 23.3
2020-Jul-06 12:16 221 22.8
2020-Jul-06 12:11 221 22.8
2020-Jul-06 12:06 221 22.8
2020-Jul-06 12:01 221 22.8
2020-Jul-06 11:56 221 22.8
2020-Jul-06 11:51 221 22.8
2020-Jul-06 11:46 221 22.8
2020-Jul-06 11:41 221 22.8
2020-Jul-06 11:36 221 22.8
2020-Jul-06 11:31 221 22.8
2020-Jul-06 11:26 221 22.2
2020-Jul-06 11:21 221 22.2
2020-Jul-06 11:16 221 22.2
2020-Jul-06 11:11 221 22.2
2020-Jul-06 11:06 221 22.2
2020-Jul-06 11:01 221 22.2
2020-Jul-06 10:55 221 22.2
2020-Jul-06 10:50 221 22.2
2020-Jul-06 10:45 219 22.2
2020-Jul-06 10:40 219 22.2
2020-Jul-06 10:35 219 22.2
2020-Jul-06 10:30 219 22.2
2020-Jul-06 10:25 219 21.7
2020-Jul-06 10:20 219 21.7
2020-Jul-06 10:15 219 21.7
2020-Jul-06 10:10 219 21.7
2020-Jul-06 10:05 219 21.7
2020-Jul-06 10:00 219 21.7
2020-Jul-06 09:55 219 22.2
2020-Jul-06 09:50 219 22.2
2020-Jul-06 09:45 219 22.2
2020-Jul-06 09:40 219 22.2
2020-Jul-06 09:35 219 22.2
2020-Jul-06 09:30 219 22.2
2020-Jul-06 09:25 219 22.2
2020-Jul-06 09:20 219 22.2
2020-Jul-06 09:15 219 22.2
2020-Jul-06 09:10 219 22.2
2020-Jul-06 09:05 219 22.2
2020-Jul-06 09:00 219 22.2
2020-Jul-06 08:55 219 22.2
2020-Jul-06 08:50 219 22.2
2020-Jul-06 08:45 219 22.2
2020-Jul-06 08:40 219 22.2
2020-Jul-06 08:35 219 22.2
2020-Jul-06 08:30 219 22.2
2020-Jul-06 08:25 219 22.2
2020-Jul-06 08:20 219 22.2
2020-Jul-06 08:15 219 22.2
2020-Jul-06 08:10 219 22.2
2020-Jul-06 08:05 219 22.2
2020-Jul-06 08:00 219 22.2
2020-Jul-06 07:55 219 22.2
2020-Jul-06 07:50 219 22.2
2020-Jul-06 07:45 219 22.2
2020-Jul-06 07:40 219 22.2
2020-Jul-06 07:35 219 22.2
2020-Jul-06 07:30 219 22.2
2020-Jul-06 07:25 219 22.2
2020-Jul-06 07:20 219 22.2
2020-Jul-06 07:15 219 22.2
2020-Jul-06 07:10 219 22.2
2020-Jul-06 07:05 219 22.2
2020-Jul-06 07:00 219 22.2
2020-Jul-06 06:55 219 22.8
2020-Jul-06 06:50 219 22.8
2020-Jul-06 06:45 219 22.8
2020-Jul-06 06:40 219 22.8
2020-Jul-06 06:35 219 22.8
2020-Jul-06 06:30 219 22.8
2020-Jul-06 06:25 219 22.8
2020-Jul-06 06:20 219 22.8
2020-Jul-06 06:15 219 22.8
2020-Jul-06 06:09 219 22.8
2020-Jul-06 06:04 219 22.8
2020-Jul-06 05:59 219 23.3
2020-Jul-06 05:54 219 23.3
2020-Jul-06 05:49 219 23.3
2020-Jul-06 05:44 219 23.3
2020-Jul-06 05:39 219 23.3
2020-Jul-06 05:34 219 23.3
2020-Jul-06 05:29 219 23.3
2020-Jul-06 05:24 219 23.3
2020-Jul-06 05:19 219 23.3
2020-Jul-06 05:14 219 23.3
2020-Jul-06 05:09 219 23.3
2020-Jul-06 05:04 219 23.3
2020-Jul-06 04:59 219 23.3
2020-Jul-06 04:54 220 23.3
2020-Jul-06 04:49 220 23.3
2020-Jul-06 04:44 220 23.3
2020-Jul-06 04:39 220 23.3
2020-Jul-06 04:34 220 23.3
2020-Jul-06 04:29 220 23.3
2020-Jul-06 04:24 220 23.3
2020-Jul-06 04:19 220 23.3
2020-Jul-06 04:14 220 23.3
2020-Jul-06 04:09 220 23.3
2020-Jul-06 04:04 220 23.3
2020-Jul-06 03:59 220 23.3
2020-Jul-06 03:54 220 23.3
2020-Jul-06 03:49 220 23.9
2020-Jul-06 03:44 220 23.9
2020-Jul-06 03:39 220 23.9
2020-Jul-06 03:34 220 23.9
2020-Jul-06 03:29 220 23.9
2020-Jul-06 03:24 220 23.9
2020-Jul-06 03:19 220 23.9
2020-Jul-06 03:14 220 24.4
2020-Jul-06 03:09 220 24.4
2020-Jul-06 03:04 220 24.4
2020-Jul-06 02:58 220 24.4
2020-Jul-06 02:53 220 24.4
2020-Jul-06 02:48 220 24.4
2020-Jul-06 02:43 220 24.4
2020-Jul-06 02:38 220 25.0
2020-Jul-06 02:33 220 25.0
2020-Jul-06 02:28 220 25.0
2020-Jul-06 02:23 220 25.0
2020-Jul-06 02:18 220 25.0
2020-Jul-06 02:13 220 25.6
2020-Jul-06 02:08 220 25.6
2020-Jul-06 02:03 220 25.6
2020-Jul-06 01:58 220 25.6
2020-Jul-06 01:53 220 25.6
2020-Jul-06 01:48 220 25.6
2020-Jul-06 01:43 220 25.6
2020-Jul-06 01:38 220 26.1
2020-Jul-06 01:33 220 26.1
2020-Jul-06 01:28 220 26.1
2020-Jul-06 01:23 213 26.1
2020-Jul-06 01:18 213 26.1
2020-Jul-06 01:13 213 26.1
2020-Jul-06 01:08 213 26.1
2020-Jul-06 01:03 213 26.1
2020-Jul-06 00:58 213 26.7
2020-Jul-06 00:53 220 26.7
2020-Jul-06 00:48 225 26.7
2020-Jul-06 00:43 225 26.7
2020-Jul-06 00:38 225 26.7
2020-Jul-06 00:33 225 26.7
2020-Jul-06 00:28 225 26.7
2020-Jul-06 00:23 225 27.2
2020-Jul-06 00:18 225 27.2
2020-Jul-06 00:13 225 27.2
2020-Jul-06 00:08 225 27.2
2020-Jul-06 00:03 225 27.8
2020-Jul-05 23:58 225 27.8
2020-Jul-05 23:53 225 27.8
2020-Jul-05 23:48 225 27.8
2020-Jul-05 23:43 225 27.8
2020-Jul-05 23:38 225 27.8
2020-Jul-05 23:33 225 28.3
2020-Jul-05 23:28 225 28.3
2020-Jul-05 23:23 300 28.3
2020-Jul-05 23:18 263 28.3
2020-Jul-05 23:13 263 28.3
2020-Jul-05 23:08 263 28.3
2020-Jul-05 23:03 263 28.3
2020-Jul-05 22:58 263 28.3
2020-Jul-05 22:53 263 28.3
2020-Jul-05 22:47 263 28.3
2020-Jul-05 22:42 263 28.3
2020-Jul-05 22:38 255 27.8
2020-Jul-05 22:32 055 27.8
2020-Jul-05 22:27 055 28.3
2020-Jul-05 22:22 132 28.3
2020-Jul-05 22:17 28.3
2020-Jul-05 22:12 114 28.3
2020-Jul-05 22:07 142 28.3
2020-Jul-05 22:02 135 28.3
2020-Jul-05 21:57 134 28.3
2020-Jul-05 21:52 083 28.3
2020-Jul-05 21:47 117 28.3
2020-Jul-05 21:42 185 28.3
2020-Jul-05 21:37 204 28.3
2020-Jul-05 21:32 193 28.3
2020-Jul-05 21:27 200 28.9
2020-Jul-05 21:22 217 28.9
2020-Jul-05 21:17 213 28.9
2020-Jul-05 21:12 134 29.4
2020-Jul-05 21:07 215 30.0
2020-Jul-05 21:02 234 31.1
2020-Jul-05 20:57 183 31.7
2020-Jul-05 20:52 070 32.2
2020-Jul-05 20:47 214 32.8
2020-Jul-05 20:42 128 33.3
2020-Jul-05 20:37 219 33.3
2020-Jul-05 20:32 194 33.3
2020-Jul-05 20:27 223 33.3
2020-Jul-05 20:22 223 33.9
2020-Jul-05 20:17 134 33.9
2020-Jul-05 20:12 198 34.4
2020-Jul-05 20:07 198 34.4
2020-Jul-05 20:02 134 34.4
2020-Jul-05 19:57 230 34.4
2020-Jul-05 19:52 164 34.4
2020-Jul-05 19:47 235 34.4
2020-Jul-05 19:42 244 34.4
2020-Jul-05 19:37 232 33.9
2020-Jul-05 19:32 224 34.4
2020-Jul-05 19:27 280 34.4
2020-Jul-05 19:22 238 33.9
2020-Jul-05 19:17 137 33.3
2020-Jul-05 19:12 204 32.8
2020-Jul-05 19:07 204 32.8
2020-Jul-05 19:02 204 32.2
2020-Jul-05 18:57 204 32.2
2020-Jul-05 18:52 204 32.2
2020-Jul-05 18:47 204 32.2
2020-Jul-05 18:42 204 32.2
2020-Jul-05 18:37 203 32.2
2020-Jul-05 18:32 204 32.2
2020-Jul-05 18:27 125 32.8
2020-Jul-05 18:22 123 32.8
2020-Jul-05 18:17 269 33.3
2020-Jul-05 18:12 269 33.3
2020-Jul-05 18:07 269 33.3
2020-Jul-05 18:02 126 33.3
2020-Jul-05 17:57 143 33.3
2020-Jul-05 17:52 215 33.3
2020-Jul-05 17:47 186 33.3
2020-Jul-05 17:42 223 32.8
2020-Jul-05 17:37 267 33.3
2020-Jul-05 17:32 224 33.3
2020-Jul-05 17:27 252 33.3
2020-Jul-05 17:22 270 33.3
2020-Jul-05 17:17 344 32.8
2020-Jul-05 17:12 269 32.8
2020-Jul-05 17:06 231 32.8
2020-Jul-05 17:01 282 32.2
2020-Jul-05 16:56 201 32.2
2020-Jul-05 16:51 234 32.8
2020-Jul-05 16:46 273 32.2
2020-Jul-05 16:41 198 32.2
2020-Jul-05 16:36 251 31.7
2020-Jul-05 16:31 216 31.7
2020-Jul-05 16:26 211 31.7
2020-Jul-05 16:21 245 31.7
2020-Jul-05 16:16 243 31.7
2020-Jul-05 16:11 270 31.1
2020-Jul-05 16:06 254 31.1
2020-Jul-05 16:01 290 30.6
2020-Jul-05 15:56 236 30.6
2020-Jul-05 15:51 210 30.6
2020-Jul-05 15:46 296 30.6
2020-Jul-05 15:41 267 30.6
2020-Jul-05 15:36 277 30.0
2020-Jul-05 15:31 261 30.0
2020-Jul-05 15:26 244 29.4
2020-Jul-05 15:21 207 29.4
2020-Jul-05 15:16 254 29.4
2020-Jul-05 15:11 238 29.4
2020-Jul-05 15:06 213 29.4
2020-Jul-05 15:01 286 28.9
2020-Jul-05 14:56 267 28.9
2020-Jul-05 14:51 223 28.9
2020-Jul-05 14:46 271 28.3
2020-Jul-05 14:41 247 28.3
2020-Jul-05 14:36 253 27.8
2020-Jul-05 14:31 256 27.8
2020-Jul-05 14:26 219 27.8
2020-Jul-05 14:21 238 27.2
2020-Jul-05 14:16 267 27.2
2020-Jul-05 14:11 267 27.2
2020-Jul-05 14:06 225 26.7
2020-Jul-05 14:01 232 26.7
2020-Jul-05 13:56 235 26.7
2020-Jul-05 13:51 178 26.1
2020-Jul-05 13:46 252 26.1
2020-Jul-05 13:41 227 26.1
2020-Jul-05 13:36 253 26.1
2020-Jul-05 13:31 246 25.6
2020-Jul-05 13:26 246 25.6
2020-Jul-05 13:21 246 25.6
2020-Jul-05 13:15 246 25.6
2020-Jul-05 13:10 251 25.0
2020-Jul-05 13:06 210 25.0
2020-Jul-05 13:00 211 25.0
2020-Jul-05 12:55 209 25.0
2020-Jul-05 12:50 238 25.0
2020-Jul-05 12:45 210 25.0
2020-Jul-05 12:40 198 25.0
2020-Jul-05 12:35 174 25.0
2020-Jul-05 12:30 234 24.4
2020-Jul-05 12:25 223 25.0
2020-Jul-05 12:20 229 24.4
2020-Jul-05 12:15 253 24.4
2020-Jul-05 12:10 200 24.4
2020-Jul-05 12:05 213 24.4
2020-Jul-05 12:00 192 24.4
2020-Jul-05 11:55 217 24.4
2020-Jul-05 11:50 217 23.9
2020-Jul-05 11:45 217 23.9
2020-Jul-05 11:40 217 23.9
2020-Jul-05 11:35 217 23.9
2020-Jul-05 11:30 217 23.3
2020-Jul-05 11:25 217 23.3
2020-Jul-05 11:20 217 23.3
2020-Jul-05 11:15 217 23.3
2020-Jul-05 11:10 200 23.3
2020-Jul-05 11:05 279 23.3
2020-Jul-05 11:00 217 23.3
2020-Jul-05 10:55 205 22.8
2020-Jul-05 10:50 204 22.8
2020-Jul-05 10:45 204 22.8
2020-Jul-05 10:40 204 22.8
2020-Jul-05 10:35 204 22.8
2020-Jul-05 10:30 204 22.8
2020-Jul-05 10:25 204 22.8
2020-Jul-05 10:20 204 22.8
2020-Jul-05 10:15 204 22.8
2020-Jul-05 10:10 204 22.2
2020-Jul-05 10:05 204 22.2
2020-Jul-05 10:00 204 22.2
2020-Jul-05 09:55 204 22.8
2020-Jul-05 09:50 202 22.8
2020-Jul-05 09:45 202 22.2
2020-Jul-05 09:40 202 22.8
2020-Jul-05 09:35 202 22.8
2020-Jul-05 09:30 202 22.8
2020-Jul-05 09:25 202 22.8
2020-Jul-05 09:20 201 22.8
2020-Jul-05 09:14 205 22.8
2020-Jul-05 09:10 205 22.8
2020-Jul-05 09:05 205 22.8
2020-Jul-05 08:59 205 22.8
2020-Jul-05 08:55 205 22.8
2020-Jul-05 08:49 205 22.8
2020-Jul-05 08:44 204 22.8
2020-Jul-05 08:39 204 22.8
2020-Jul-05 08:34 204 22.8
2020-Jul-05 08:29 202 22.8
2020-Jul-05 08:24 205 22.8
2020-Jul-05 08:19 205 22.8
2020-Jul-05 08:14 207 22.2
2020-Jul-05 08:10 227 22.2
2020-Jul-05 08:04 232 22.2
2020-Jul-05 07:59 189 21.7
2020-Jul-05 07:54 187 21.7
2020-Jul-05 07:49 184 21.7
2020-Jul-05 07:44 184 21.7
2020-Jul-05 07:39 184 21.7
2020-Jul-05 07:34 184 21.7
2020-Jul-05 07:29 184 21.7
2020-Jul-05 07:24 184 21.7
2020-Jul-05 07:19 184 21.7
2020-Jul-05 07:14 184 21.7
2020-Jul-05 07:09 184 21.7
2020-Jul-05 07:04 184 21.7
2020-Jul-05 06:59 184 21.7
2020-Jul-05 06:54 184 21.7
2020-Jul-05 06:49 184 21.7
2020-Jul-05 06:44 184 21.7
2020-Jul-05 06:39 184 21.7
2020-Jul-05 06:34 184 21.7
2020-Jul-05 06:29 184 21.7
2020-Jul-05 06:24 184 22.2
2020-Jul-05 06:19 184 22.2
2020-Jul-05 06:14 184 22.2
2020-Jul-05 06:09 184 22.2
2020-Jul-05 06:04 184 22.2
2020-Jul-05 05:59 184 22.2
2020-Jul-05 05:54 184 22.2
2020-Jul-05 05:49 184 22.2
2020-Jul-05 05:44 184 22.2
2020-Jul-05 05:39 184 22.2
2020-Jul-05 05:34 184 22.8
2020-Jul-05 05:29 184 22.8
2020-Jul-05 05:24 184 22.8
2020-Jul-05 05:19 184 22.8
2020-Jul-05 05:14 184 22.8
2020-Jul-05 05:09 184 22.8
2020-Jul-05 05:04 184 22.8
2020-Jul-05 04:59 184 22.8
2020-Jul-05 04:54 184 22.8
2020-Jul-05 04:49 184 23.3
2020-Jul-05 04:44 184 23.3
2020-Jul-05 04:39 184 23.3
2020-Jul-05 04:34 184 23.3
2020-Jul-05 04:29 184 23.3
2020-Jul-05 04:24 184 23.3
2020-Jul-05 04:19 184 23.3
2020-Jul-05 04:14 184 23.3
2020-Jul-05 04:09 184 23.3
2020-Jul-05 04:03 184 23.9
2020-Jul-05 03:58 184 23.9
2020-Jul-05 03:53 184 23.9
2020-Jul-05 03:48 184 23.9
2020-Jul-05 03:43 184 23.9
2020-Jul-05 03:38 184 23.9
2020-Jul-05 03:33 184 24.4
2020-Jul-05 03:28 184 24.4
2020-Jul-05 03:23 184 24.4
2020-Jul-05 03:18 184 24.4
2020-Jul-05 03:13 184 24.4
2020-Jul-05 03:08 184 25.0
2020-Jul-05 03:03 184 25.0
2020-Jul-05 02:58 184 25.0
2020-Jul-05 02:53 184 25.0
2020-Jul-05 02:48 184 25.0
2020-Jul-05 02:43 184 25.6
2020-Jul-05 02:38 184 25.6
2020-Jul-05 02:33 184 25.6
2020-Jul-05 02:28 184 25.6
2020-Jul-05 02:23 184 25.6
2020-Jul-05 02:18 184 25.6
2020-Jul-05 02:13 184 26.1
2020-Jul-05 02:08 184 26.1
2020-Jul-05 02:03 184 26.1
2020-Jul-05 01:58 184 26.1
2020-Jul-05 01:53 184 26.7
2020-Jul-05 01:48 184 26.7
2020-Jul-05 01:43 184 26.7
2020-Jul-05 01:38 184 26.7
2020-Jul-05 01:33 184 26.7
2020-Jul-05 01:28 184 26.7
2020-Jul-05 01:23 184 26.7
2020-Jul-05 01:18 184 27.2
2020-Jul-05 01:08 184 27.2
2020-Jul-05 01:03 185 27.2
2020-Jul-05 00:58 205 27.2
2020-Jul-05 00:53 198 27.8
2020-Jul-05 00:48 199 27.8
2020-Jul-05 00:43 187 27.8
2020-Jul-05 00:38 188 27.8
2020-Jul-05 00:33 206 28.3
2020-Jul-05 00:28 182 28.3
2020-Jul-05 00:23 117 28.3
2020-Jul-05 00:18 175 28.3
2020-Jul-05 00:13 173 28.3
2020-Jul-05 00:08 163 28.3
2020-Jul-05 00:03 160 28.9
2020-Jul-04 23:58 168 28.9
2020-Jul-04 23:53 184 28.9
2020-Jul-04 23:48 205 28.9
2020-Jul-04 23:43 130 28.9
2020-Jul-04 23:37 106 29.4
2020-Jul-04 23:32 107 29.4
2020-Jul-04 23:27 156 29.4
2020-Jul-04 23:22 215 29.4
2020-Jul-04 23:17 194 29.4
2020-Jul-04 23:12 212 30.0
2020-Jul-04 23:07 119 30.0
2020-Jul-04 23:02 123 30.0
2020-Jul-04 22:57 124 30.0
2020-Jul-04 22:52 178 30.0
2020-Jul-04 22:47 154 30.0
2020-Jul-04 22:42 164 30.0
2020-Jul-04 22:37 198 30.0
2020-Jul-04 22:32 141 30.6
2020-Jul-04 22:27 153 30.6
2020-Jul-04 22:22 180 31.1
2020-Jul-04 22:17 329 31.7
2020-Jul-04 22:12 123 32.2
2020-Jul-04 22:07 116 32.8
2020-Jul-04 22:02 242 32.8
2020-Jul-04 21:57 242 32.8
2020-Jul-04 21:52 242 33.3
2020-Jul-04 21:47 242 33.3
2020-Jul-04 21:42 242 33.3
2020-Jul-04 21:37 242 33.3
2020-Jul-04 21:32 242 33.9
2020-Jul-04 21:27 242 33.9
2020-Jul-04 21:22 245 33.9
2020-Jul-04 21:17 219 33.9
2020-Jul-04 21:12 115 33.3
2020-Jul-04 21:07 114 33.3
2020-Jul-04 21:02 114 32.8
2020-Jul-04 20:57 114 32.8
2020-Jul-04 20:52 114 32.8
2020-Jul-04 20:47 114 33.3
2020-Jul-04 20:42 114 33.3
2020-Jul-04 20:37 114 33.3
2020-Jul-04 20:32 114 33.9
2020-Jul-04 20:27 112 33.9
2020-Jul-04 20:22 108 33.9
2020-Jul-04 20:16 113 33.9
2020-Jul-04 20:11 065 33.9
2020-Jul-04 20:06 065 33.9
2020-Jul-04 20:01 065 33.3